STARLINK-38089, 69985

Orbit data source: Space-Track

STARLINK-38089, 69985 is a payload satellite owned by SpaceX/Seattle (US) in SSO that was launched on Sat, 11 Jul 2026 UTC via an FALCON 9 launch vehicle from the Air Force Western Test Range (AFWTR). Payload-class satellites include a variety of spacecraft equipped with specific instruments for various scientific and technological missions. These include communications satellites like Starlink; space stations such as the ISS; scientific satellites like the Hubble; Earth observation satellites from companies like Planet Labs, Umbra, and HawkEye 360; GPS; miniature CubeSats for education and research; and military/defense satellites.

Loading next visibility...
Identifier
69985, 2026-159L
Orbit
SSO
Country
Flag of USUS
Related business
Manufacturer
SpaceX/Seattle
Mission
Operational spacecraft
Bus & Motor
STARLINK V2MO, Unknown motor
Mass
575 kg wet, ~530 kg dry
Launch date (UTC)
2026-07-11 (2 months ago)
Launch vehicle
FALCON 9
Launch site
Air Force Western Test Range (AFWTR)
Object type
Payload
Rocket body
Debris
Shape & HBR
BOX + PAN, 17.7 m
Radar Cross Section
Large (>1 m²)

Expand to show TLE details & history
Last TLE update: 21 hours ago

TLE from 21 hours ago
0 STARLINK-38089
1 69985U 26159L   26264.09462781  .00030004  00000-0  55093-3 0  9999
2 69985  97.2847 105.8305 0001597  97.7929 262.3504 15.49204863 12538
Epoch: 2026-09-21T02:16Z
TLE epoch observation values (Epoch: 2026-09-21T02:16:15.842Z)
Latitude
-0.00001°
Longitude
71.78511°
Altitude
422.329 km
Speed
7.658 km/s
True Right ascension
07h 03m 19s
True Declination
0° 00' 00"
Sunlit
Object was in daylight at epoch
Visualization orbit readout
Latitude
Unknown
Longitude
Unknown
Altitude
Unknown
Speed
Unknown
Apparent Right ascension
Unknown
Apparent Declination
Unknown
Sunlit
N/A
Visualization observer readout
Local Sidereal Time
16:21:55
Azimuth
Unknown
Elevation
Unknown
Doppler factor
Unknown
Orbital elements
Apogee altitude
417.058 km
Perigee altitude
414.888 km
Semi-major axis
6,794.11 km
Eccentricity
0.00016
Inclination
97.2847°
RAAN
105.8305°
Arg. of periapsis
97.7929°
True anomaly
262.33226°
Mean anomaly
262.3504°
Eccentric anomaly
262.34133°
Mean motion
3.87565 °/min
Orbital period
92.89 mins
BSTAR
0.00055093
Loading maneuver chart data...
Computing Atmospheric mass density...
Loading historical data...
Loading historical data...
Loading historical data...
Loading historical data...
Loading historical data...
Loading historical data...
Loading historical data...

Documentation

Showing up to 5 results
|